Tracking 20093 objects as of 16-Dec-2019
HD Live streaming from Space Station
objects crossing your sky now

STARLINK-80

Track STARLINK-80 now!
10-day predictions
STARLINK-80 is classified as:


NORAD ID: 44282
Int'l Code: 2019-029AZ
Perigee: 498.2 km
Apogee: 504.6 km
Inclination: 53.0 °
Period: 94.5 minutes
Semi major axis: 6872 km
RCS: Unknown
Launch date: May 24, 2019
Source: United States (US)
Launch site: AIR FORCE EASTERN TEST RANGE (AFETR)
aabbcc
Your satellite tracking list
Your tracking list is empty




NASA's NSSDC Master Catalog

Two Line Element Set (TLE):
1 44282U 19029AZ  19349.16168159  .00004534  00000-0  19933-3 0  9998
2 44282  53.0291 309.3335 0004632  26.2668 333.8562 15.23835556 31347
Source of the keplerian elements: AFSPC